FENGYUN 1C DEB, 35109

Orbit data source: Space-Track

FENGYUN 1C DEB, 35109 is space debris in SSO originally from a launch on Mon, 10 May 1999 UTC launched from the Taiyaun Space Center, China (TSC). Fengyun 1C debris stems from the Chinese weather satellite Fengyun-1C, which was intentionally destroyed by a Chinese anti-satellite missile in 2007. This event dramatically increased the amount of space debris, with thousands of trackable fragments posing hazards to satellites and human spaceflight. The Fengyun 1C debris cloud has become a focal point in discussions about space sustainability and the need for international regulations to prevent the creation of new debris.

Loading next visibility...
Identifier
35109, 1999-025DKM
Orbit
SSO
Country
Flag of CNCN / PRC
Related business
Manufacturer
Unknown
Mission
Spacecraft
Bus & Motor
Unknown
Mass
Unknown
Launch date (UTC)
1999-05-10 (27 years ago)
Launch vehicle
Unknown
Launch site
Taiyaun Space Center, China (TSC)
Object type
Payload
Rocket body
Debris
Shape & HBR
Unknown shape, 0.1 m
Radar Cross Section
Small (<0.1 m²)

Expand to show TLE details & history
Last TLE update: 1 day ago

TLE from 1 day ago
0 FENGYUN 1C DEB
1 35109U 99025DKM 26094.23108432  .00000984  00000-0  41979-3 0  9991
2 35109  98.6266  85.8363 0153511  68.6128 293.1350 14.21047612657578
Epoch: 2026-04-04T05:32Z
TLE epoch observation values (Epoch: 2026-04-04T05:32:45.685Z)
Latitude
-0.00009°
Longitude
170.09213°
Altitude
782.745 km
Speed
7.484 km/s
True Right ascension
05h 43m 20s
True Declination
0° 00' 00"
Sunlit
Object was in daylight at epoch
Visualization orbit readout
Latitude
Unknown
Longitude
Unknown
Altitude
Unknown
Speed
Unknown
Apparent Right ascension
Unknown
Apparent Declination
Unknown
Sunlit
N/A
Visualization observer readout
Local Sidereal Time
20:31:51
Azimuth
Unknown
Elevation
Unknown
Doppler factor
Unknown
Orbital elements
Apogee altitude
929.448 km
Perigee altitude
708.481 km
Semi-major axis
7,197.101 km
Eccentricity
0.01535
Inclination
98.6266°
RAAN
85.8363°
Arg. of periapsis
68.6128°
True anomaly
291.50529°
Mean anomaly
293.135°
Eccentric anomaly
292.32135°
Mean motion
3.55473 °/min
Orbital period
101.27 mins
BSTAR
0.00041979
Loading maneuver chart data...
Computing Atmospheric mass density...

Documentation

Showing up to 5 results
|